New York Downtown Manhattan/w, NY

12:43 PM EST on November 19, 2019 (GMT -0500)
New York Downtown Manhattan/w

Weather History for KJRB - May, 2019

Change the Weather History Date:

Friday, May 31, 2019

  Actual Average (WUND) Record (WUND)
Temperature  
Mean Temperature 72 °F -  
Max Temperature 82 °F - - (-1)
Min Temperature 63 °F - - (-1)
Cooling Degree Days 7    
Growing Degree Days 22 (Base 50)    
Moisture  
Dew Point 60 °F    
Average Humidity 72    
Maximum Humidity 100    
Minimum Humidity 47    
Precipitation  
Precipitation 0.16 in - - ()
Sea Level Pressure  
Sea Level Pressure 29.75 in    
Wind  
Wind Speed 3 mph ()    
Max Wind Speed 9 mph    
Max Gust Speed 51 mph    
Visibility 9.4 miles    
Events Rain    
Averages and records for this station are not official NWS values.
T = Trace of Precipitation, MM = Missing Value Source: Averaged Metar Reports

Daily Weather History Graph

Daily Weather History Graph

Search for Another Location

Airport or City:

Astronomy

May. 31, 2019 Rise Set
Actual Time 5:27 AM EDT 8:20 PM EDT
Civil Twilight 4:55 AM EDT 8:52 PM EDT
Nautical Twilight 4:14 AM EDT 9:33 PM EDT
Astronomical Twilight 3:26 AM EDT 10:21 PM EDT
Moon 4:01 AM EDT (5/31) 5:25 PM EDT (5/31)
Length of Visible Light 15h 57m
Length of Day
14h 52m
Waning Crescent, 9% of the Moon is Illuminated
May 31
Waning Crescent
Jun 3
New
Jun 10
First Quarter
Jun 17
Full
Jun 25
Last Quarter

Hourly Weather History & Observations

Time (EDT) Temp. Heat Index Dew Point Humidity Pressure Visibility Wind Dir Wind Speed Gust Speed Precip Events Conditions
12:56 AM 63.0 °F - 62.1 °F 97% 29.67 in 4.0 mi WSW 3.5 mph - 0.11 in Rain Light Rain
1:39 AM 64.4 °F - 62.6 °F 94% 29.64 in 6.0 mi WNW 3.5 mph - 0.00 in   Overcast
1:56 AM 64.9 °F - 64.0 °F 97% 29.68 in 9.0 mi Variable 3.5 mph - 0.00 in   Overcast
2:05 AM 64.4 °F - 64.4 °F 100% 29.68 in 9.0 mi Variable 4.6 mph - N/A   Overcast
2:30 AM 64.4 °F - 64.4 °F 100% 29.67 in 10.0 mi Calm Calm - N/A   Overcast
2:56 AM 64.9 °F - 64.0 °F 97% 29.67 in 10.0 mi Calm Calm - N/A   Partly Cloudy
3:56 AM 64.9 °F - 63.0 °F 93% 29.68 in 10.0 mi Calm Calm - N/A   Clear
4:56 AM 64.0 °F - 62.1 °F 93% 29.69 in 10.0 mi West 4.6 mph - N/A   Clear
5:56 AM 63.0 °F - 62.1 °F 97% 29.72 in 10.0 mi WSW 6.9 mph - N/A   Clear
6:56 AM 63.0 °F - 62.1 °F 97% 29.74 in 10.0 mi WSW 8.1 mph - N/A   Clear
7:56 AM 64.9 °F - 62.1 °F 90% 29.75 in 10.0 mi WSW 5.8 mph - N/A   Clear
8:56 AM 68.0 °F - 62.1 °F 81% 29.77 in 10.0 mi Calm Calm - 0.01 in   Clear
9:56 AM 73.9 °F - 61.0 °F 64% 29.78 in 10.0 mi SW 9.2 mph 39.1 mph N/A   Clear
10:56 AM 77.0 °F - 60.1 °F 56% 29.79 in 10.0 mi West 6.9 mph 39.1 mph N/A   Clear
11:56 AM 78.1 °F - 59.0 °F 52% 29.80 in 7.0 mi West 9.2 mph 50.6 mph N/A   Partly Cloudy
12:56 PM 79.0 °F - 57.0 °F 47% 29.80 in 10.0 mi Variable 4.6 mph - 0.01 in   Clear
1:56 PM 79.0 °F - 57.0 °F 47% 29.78 in 10.0 mi Calm Calm - 0.01 in   Mostly Cloudy
2:56 PM 81.0 °F 81.3 °F 59.0 °F 47% 29.78 in 10.0 mi WSW 5.8 mph 24.2 mph N/A   Scattered Clouds
3:56 PM 81.0 °F 81.3 °F 59.0 °F 47% 29.76 in 9.0 mi Variable 5.8 mph 35.7 mph 0.01 in   Scattered Clouds
4:56 PM 79.0 °F - 57.0 °F 47% 29.75 in 10.0 mi Variable 5.8 mph - N/A   Mostly Cloudy
5:56 PM 78.1 °F - 57.9 °F 50% 29.76 in 10.0 mi Variable 5.8 mph 36.8 mph 0.01 in   Partly Cloudy
6:56 PM 75.0 °F - 59.0 °F 57% 29.76 in 10.0 mi West 3.5 mph - N/A   Partly Cloudy
7:56 PM 73.0 °F - 57.9 °F 59% 29.78 in 10.0 mi WSW 4.6 mph - N/A   Clear
8:56 PM 73.9 °F - 57.0 °F 55% 29.79 in 10.0 mi SSW 4.6 mph - N/A   Clear
9:56 PM 71.1 °F - 57.9 °F 63% 29.81 in 10.0 mi South 4.6 mph - N/A   Clear
10:56 PM 70.0 °F - 57.9 °F 65% 29.81 in 10.0 mi Calm Calm - N/A   Clear
11:56 PM 70.0 °F - 57.9 °F 65% 29.81 in 10.0 mi Calm Calm - N/A   Clear